^^
Your Local Weather - Clay, NY Station Historical Data
Daily Summary for February 3, 2017 Units:  Metric    English   Both
« Previous Day
Next Day »
Daily Weekly Monthly Yearly Custom
  High: Low: Average:
Temperature: -4.1 °C -7.8 °C -6.3 °C
Dew Point: -10.7 °C -14.4 °C -13.1 °C
Humidity: 79% 47% 59%
Wind Speed: 11.3km/h 3.2km/h 7.9km/h
Wind Gust: 25.7km/h - -
Wind- - WSW
Pressure: 1022.6 hPa 1019.2 hPa -
Precipitation: 0 mm    
Historical Graphs
 
 
Tabular Data for February 3, 2017
Time Temperature Dew Point Pressure Wind Wind Speed Wind Gust Humidity Rainfall Rate (Hourly) solar
00:02 -6.3 °C -13.2 °C 1021.6 hPa West 6.4 km/h 12.9 km/h 58% 0 mm 0 W/m2
00:08 -6.2 °C -12.9 °C 1021.6 hPa WSW 8 km/h 12.9 km/h 59% 0 mm 0 W/m2
00:13 -6.3 °C -13.1 °C 1021.6 hPa SSW 4.8 km/h 9.7 km/h 59% 0 mm 0 W/m2
00:20 -6.2 °C -12.9 °C 1021.6 hPa WSW 6.4 km/h 6.4 km/h 59% 0 mm 0 W/m2
00:22 -6.2 °C -12.9 °C 1021.6 hPa WSW 6.4 km/h 6.4 km/h 59% 0 mm 0 W/m2
00:28 -6.2 °C -12.9 °C 1021.6 hPa West 4.8 km/h 6.4 km/h 59% 0 mm 0 W/m2
00:33 -6.2 °C -13.1 °C 1021.6 hPa West 6.4 km/h 6.4 km/h 58% 0 mm 0 W/m2
00:39 -6.2 °C -13.2 °C 1021.6 hPa SSW 6.4 km/h 6.4 km/h 58% 0 mm 0 W/m2
00:46 -6.3 °C -13.2 °C 1021.2 hPa SW 4.8 km/h 6.4 km/h 58% 0 mm 0 W/m2
00:52 -6.3 °C -13.1 °C 1021.6 hPa SSW 4.8 km/h 6.4 km/h 59% 0 mm 0 W/m2
00:58 -6.3 °C -13.1 °C 1021.2 hPa West 4.8 km/h 6.4 km/h 59% 0 mm 0 W/m2
01:04 -6.4 °C -13.1 °C 1021.2 hPa SW 6.4 km/h 6.4 km/h 59% 0 mm 0 W/m2
01:09 -6.4 °C -13.2 °C 1020.9 hPa SW 6.4 km/h 6.4 km/h 59% 0 mm 0 W/m2
01:15 -6.6 °C -13.3 °C 1020.9 hPa WSW 4.8 km/h 6.4 km/h 59% 0 mm 0 W/m2
01:22 -6.6 °C -13.1 °C 1020.9 hPa SW 4.8 km/h 6.4 km/h 60% 0 mm 0 W/m2
01:28 -6.6 °C -13.1 °C 1020.9 hPa West 6.4 km/h 11.3 km/h 60% 0 mm 0 W/m2
01:34 -6.4 °C -12.9 °C 1020.9 hPa WSW 6.4 km/h 9.7 km/h 60% 0 mm 0 W/m2
01:40 -6.3 °C -12.8 °C 1020.9 hPa WSW 6.4 km/h 8 km/h 60% 0 mm 0 W/m2
01:45 -6.3 °C -12.8 °C 1020.9 hPa SW 6.4 km/h 8 km/h 60% 0 mm 0 W/m2
01:52 -6.2 °C -12.9 °C 1021.2 hPa SW 6.4 km/h 6.4 km/h 59% 0 mm 0 W/m2
01:58 -6.2 °C -12.9 °C 1020.9 hPa WSW 8 km/h 11.3 km/h 59% 0 mm 0 W/m2
02:04 -6.2 °C -12.9 °C 1021.2 hPa SW 8 km/h 14.5 km/h 59% 0 mm 0 W/m2
02:10 -6.2 °C -12.9 °C 1021.2 hPa SW 8 km/h 8 km/h 59% 0 mm 0 W/m2
02:15 -6.2 °C -12.9 °C 1021.2 hPa WSW 8 km/h 9.7 km/h 59% 0 mm 0 W/m2
02:22 -6.3 °C -13.1 °C 1021.2 hPa West 6.4 km/h 8 km/h 59% 0 mm 0 W/m2
02:28 -6.4 °C -12.9 °C 1021.2 hPa WSW 4.8 km/h 16.1 km/h 60% 0 mm 0 W/m2
02:34 -6.5 °C -13 °C 1021.2 hPa SW 6.4 km/h 8 km/h 60% 0 mm 0 W/m2
02:40 -6.6 °C -13.1 °C 1021.2 hPa WSW 6.4 km/h 6.4 km/h 60% 0 mm 0 W/m2
02:45 -6.6 °C -12.9 °C 1021.2 hPa West 4.8 km/h 6.4 km/h 61% 0 mm 0 W/m2
02:52 -6.7 °C -12.9 °C 1020.9 hPa WSW 6.4 km/h 8 km/h 61% 0 mm 0 W/m2
02:58 -6.6 °C -12.8 °C 1020.9 hPa West 6.4 km/h 14.5 km/h 61% 0 mm 0 W/m2
03:03 -6.6 °C -12.9 °C 1020.9 hPa West 4.8 km/h 9.7 km/h 61% 0 mm 0 W/m2
03:10 -6.7 °C -12.9 °C 1020.9 hPa WSW 6.4 km/h 6.4 km/h 61% 0 mm 0 W/m2
03:15 -6.6 °C -12.9 °C 1020.9 hPa West 8 km/h 11.3 km/h 61% 0 mm 0 W/m2
03:22 -6.6 °C -12.9 °C 1020.9 hPa WSW 6.4 km/h 12.9 km/h 61% 0 mm 0 W/m2
03:28 -6.6 °C -12.9 °C 1020.5 hPa SSW 8 km/h 12.9 km/h 61% 0 mm 0 W/m2
03:34 -6.7 °C -12.7 °C 1020.9 hPa WSW 8 km/h 16.1 km/h 62% 0 mm 0 W/m2
03:39 -6.7 °C -12.8 °C 1020.5 hPa SW 6.4 km/h 9.7 km/h 62% 0 mm 0 W/m2
03:45 -6.8 °C -12.8 °C 1020.5 hPa SW 6.4 km/h 9.7 km/h 62% 0 mm 0 W/m2
03:52 -6.8 °C -12.9 °C 1020.5 hPa WSW 6.4 km/h 6.4 km/h 62% 0 mm 0 W/m2
03:58 -6.8 °C -12.7 °C 1020.9 hPa WSW 6.4 km/h 9.7 km/h 63% 0 mm 0 W/m2
04:03 -6.8 °C -12.7 °C 1020.9 hPa WSW 6.4 km/h 6.4 km/h 63% 0 mm 0 W/m2
04:10 -6.7 °C -12.6 °C 1020.9 hPa SW 6.4 km/h 8 km/h 63% 0 mm 0 W/m2
04:15 -6.7 °C -12.6 °C 1020.9 hPa WSW 8 km/h 12.9 km/h 63% 0 mm 0 W/m2
04:22 -6.7 °C -12.6 °C 1020.9 hPa SW 8 km/h 16.1 km/h 63% 0 mm 0 W/m2
04:28 -6.6 °C -12.5 °C 1021.2 hPa WSW 8 km/h 16.1 km/h 63% 0 mm 0 W/m2
04:34 -6.7 °C -12.6 °C 1020.9 hPa West 8 km/h 16.1 km/h 63% 0 mm 0 W/m2
04:39 -6.7 °C -12.6 °C 1020.9 hPa West 8 km/h 8 km/h 63% 0 mm 0 W/m2
04:46 -6.7 °C -12.6 °C 1020.9 hPa WSW 8 km/h 11.3 km/h 63% 0 mm 0 W/m2
04:52 -6.7 °C -12.6 °C 1020.9 hPa WSW 8 km/h 9.7 km/h 63% 0 mm 0 W/m2
04:58 -6.7 °C -12.6 °C 1020.5 hPa WSW 9.7 km/h 9.7 km/h 63% 0 mm 0 W/m2
05:04 -6.6 °C -12.5 °C 1020.5 hPa SSW 9.7 km/h 11.3 km/h 63% 0 mm 0 W/m2
05:10 -6.6 °C -12.5 °C 1020.5 hPa WNW 11.3 km/h 11.3 km/h 63% 0 mm 0 W/m2
05:15 -6.7 °C -12.6 °C 1020.5 hPa SSW 11.3 km/h 11.3 km/h 63% 0 mm 0 W/m2
05:22 -6.7 °C -12.6 °C 1020.5 hPa West 9.7 km/h 9.7 km/h 63% 0 mm 0 W/m2
05:28 -6.7 °C -12.4 °C 1020.5 hPa WNW 11.3 km/h 11.3 km/h 64% 0 mm 0 W/m2
05:33 -6.8 °C -12.7 °C 1020.5 hPa WSW 9.7 km/h 12.9 km/h 63% 0 mm 0 W/m2
05:39 -6.9 °C -12.6 °C 1020.5 hPa WNW 8 km/h 8 km/h 64% 0 mm 0 W/m2
05:46 -6.9 °C -12.6 °C 1020.5 hPa SW 9.7 km/h 12.9 km/h 64% 0 mm 0 W/m2
05:52 -7.1 °C -12.6 °C 1020.5 hPa West 8 km/h 8 km/h 65% 0 mm 0 W/m2
05:58 -7.2 °C -12.6 °C 1020.5 hPa SW 8 km/h 14.5 km/h 65% 0 mm 0 W/m2
06:03 -7.2 °C -12.6 °C 1020.5 hPa WSW 9.7 km/h 16.1 km/h 65% 0 mm 0 W/m2
06:09 -7.3 °C -12.8 °C 1020.5 hPa SW 8 km/h 8 km/h 65% 0 mm 0 W/m2
06:15 -7.3 °C -12.8 °C 1020.5 hPa SW 9.7 km/h 12.9 km/h 65% 0 mm 0 W/m2
06:22 -7.3 °C -12.7 °C 1020.5 hPa SW 9.7 km/h 9.7 km/h 65% 0 mm 0 W/m2
06:28 -7.4 °C -12.7 °C 1020.5 hPa WSW 9.7 km/h 9.7 km/h 66% 0 mm 0 W/m2
06:33 -7.4 °C -12.7 °C 1020.5 hPa SSW 8 km/h 12.9 km/h 66% 0 mm 0 W/m2
06:39 -7.4 °C -12.7 °C 1020.5 hPa WSW 8 km/h 8 km/h 66% 0 mm 0 W/m2
06:46 -7.4 °C -12.7 °C 1020.5 hPa West 8 km/h 14.5 km/h 66% 0 mm 0 W/m2
06:52 -7.4 °C -12.7 °C 1020.5 hPa SW 9.7 km/h 9.7 km/h 66% 0 mm 0 W/m2
06:58 -7.5 °C -12.8 °C 1020.5 hPa WSW 8 km/h 25.7 km/h 66% 0 mm 0 W/m2
07:04 -7.6 °C -12.8 °C 1020.5 hPa West 8 km/h 11.3 km/h 66% 0 mm 0 W/m2
07:09 -7.6 °C -12.9 °C 1020.9 hPa SW 8 km/h 14.5 km/h 66% 0 mm 0 W/m2
07:15 -7.5 °C -12.9 °C 1020.9 hPa SSW 8 km/h 16.1 km/h 65% 0 mm 0 W/m2
07:22 -7.5 °C -12.9 °C 1021.2 hPa SSW 11.3 km/h 11.3 km/h 65% 0 mm 7 W/m2
07:28 -7.6 °C -13.1 °C 1021.2 hPa West 8 km/h 14.5 km/h 65% 0 mm 11 W/m2
07:34 -7.6 °C -13.1 °C 1021.2 hPa WSW 8 km/h 8 km/h 65% 0 mm 14 W/m2
07:39 -7.6 °C -13 °C 1021.2 hPa WNW 9.7 km/h 9.7 km/h 65% 0 mm 19 W/m2
07:45 -7.5 °C -13.2 °C 1021.2 hPa West 9.7 km/h 19.3 km/h 64% 0 mm 26 W/m2
07:52 -7.5 °C -13.2 °C 1021.2 hPa SW 8 km/h 9.7 km/h 64% 0 mm 44 W/m2
07:58 -7.4 °C -13.1 °C 1021.2 hPa West 8 km/h 11.3 km/h 64% 0 mm 65 W/m2
08:04 -7.2 °C -12.9 °C 1021.2 hPa WSW 9.7 km/h 9.7 km/h 64% 0 mm 60 W/m2
08:09 -7.1 °C -12.9 °C 1021.2 hPa West 9.7 km/h 9.7 km/h 63% 0 mm 51 W/m2
08:16 -7.1 °C -12.9 °C 1021.2 hPa SW 8 km/h 9.7 km/h 63% 0 mm 53 W/m2
08:22 -7 °C -13.1 °C 1021.2 hPa SW 9.7 km/h 9.7 km/h 62% 0 mm 65 W/m2
08:28 -7 °C -13.1 °C 1021.2 hPa WSW 9.7 km/h 11.3 km/h 62% 0 mm 65 W/m2
08:33 -6.9 °C -13 °C 1021.6 hPa WSW 6.4 km/h 12.9 km/h 62% 0 mm 109 W/m2
08:40 -6.9 °C -12.8 °C 1021.6 hPa WSW 8 km/h 8 km/h 63% 0 mm 104 W/m2
08:45 -6.8 °C -12.8 °C 1021.6 hPa West 9.7 km/h 11.3 km/h 62% 0 mm 114 W/m2
08:52 -6.7 °C -12.8 °C 1021.6 hPa SW 9.7 km/h 9.7 km/h 62% 0 mm 93 W/m2
08:58 -6.7 °C -12.7 °C 1021.6 hPa WSW 8 km/h 14.5 km/h 62% 0 mm 100 W/m2
09:03 -6.6 °C -12.7 °C 1021.9 hPa WSW 8 km/h 9.7 km/h 62% 0 mm 100 W/m2
09:10 -6.6 °C -12.7 °C 1021.9 hPa SSW 8 km/h 11.3 km/h 62% 0 mm 113 W/m2
09:15 -6.6 °C -12.8 °C 1021.9 hPa SSW 9.7 km/h 12.9 km/h 61% 0 mm 123 W/m2
09:22 -6.6 °C -12.8 °C 1021.9 hPa WSW 9.7 km/h 9.7 km/h 61% 0 mm 134 W/m2
09:28 -6.4 °C -12.7 °C 1021.9 hPa WSW 9.7 km/h 14.5 km/h 61% 0 mm 158 W/m2
09:33 -6.4 °C -12.9 °C 1021.9 hPa SSW 8 km/h 9.7 km/h 60% 0 mm 169 W/m2
09:40 -6.3 °C -13.1 °C 1021.6 hPa West 9.7 km/h 9.7 km/h 59% 0 mm 169 W/m2
09:45 -6.3 °C -13.1 °C 1021.6 hPa SW 9.7 km/h 11.3 km/h 59% 0 mm 125 W/m2
09:52 -6.4 °C -13.2 °C 1021.6 hPa SW 11.3 km/h 22.5 km/h 59% 0 mm 193 W/m2
09:58 -6.1 °C -13.1 °C 1021.6 hPa SW 11.3 km/h 22.5 km/h 58% 0 mm 410 W/m2
10:03 -5.9 °C -13.1 °C 1021.6 hPa SSW 11.3 km/h 12.9 km/h 57% 0 mm 415 W/m2
10:09 -5.7 °C -12.8 °C 1021.6 hPa SW 9.7 km/h 9.7 km/h 57% 0 mm 431 W/m2
10:16 -5.6 °C -13.2 °C 1021.6 hPa West 9.7 km/h 19.3 km/h 55% 0 mm 439 W/m2
10:22 -5.4 °C -12.8 °C 1021.6 hPa WSW 8 km/h 11.3 km/h 56% 0 mm 454 W/m2
10:28 -5.5 °C -13.3 °C 1021.6 hPa WSW 9.7 km/h 19.3 km/h 54% 0 mm 464 W/m2
10:34 -5.2 °C -12.8 °C 1021.6 hPa SW 9.7 km/h 12.9 km/h 55% 0 mm 471 W/m2
10:40 -5.4 °C -13.2 °C 1021.6 hPa WSW 9.7 km/h 11.3 km/h 54% 0 mm 480 W/m2
10:45 -5.3 °C -13.2 °C 1021.2 hPa West 9.7 km/h 12.9 km/h 54% 0 mm 487 W/m2
10:49 -5.3 °C -13.2 °C 1021.2 hPa SSW 11.3 km/h 11.3 km/h 54% 0 mm 494 W/m2
10:56 -5.2 °C -12.8 °C 1021.2 hPa WSW 11.3 km/h 22.5 km/h 55% 0 mm 499 W/m2
11:02 -5.2 °C -12.9 °C 1021.6 hPa WSW 11.3 km/h 11.3 km/h 55% 0 mm 515 W/m2
11:08 -4.9 °C -12.8 °C 1021.2 hPa SW 11.3 km/h 12.9 km/h 54% 0 mm 524 W/m2
11:14 -4.7 °C -12.6 °C 1021.2 hPa WSW 8 km/h 16.1 km/h 54% 0 mm 527 W/m2
11:19 -4.3 °C -12.3 °C 1021.2 hPa WSW 6.4 km/h 11.3 km/h 54% 0 mm 550 W/m2
11:25 -4.9 °C -12.8 °C 1021.2 hPa WNW 8 km/h 12.9 km/h 54% 0 mm 531 W/m2
11:32 -4.8 °C -12.2 °C 1021.2 hPa West 9.7 km/h 11.3 km/h 56% 0 mm 592 W/m2
11:38 -4.5 °C -12.4 °C 1021.2 hPa West 8 km/h 11.3 km/h 54% 0 mm 531 W/m2
11:44 -4.8 °C -12.4 °C 1021.2 hPa SW 8 km/h 9.7 km/h 55% 0 mm 403 W/m2
11:49 -4.6 °C -12 °C 1021.2 hPa WNW 8 km/h 8 km/h 56% 0 mm 501 W/m2
11:56 -4.3 °C -12.3 °C 1020.9 hPa SW 6.4 km/h 8 km/h 54% 0 mm 473 W/m2
12:02 -4.6 °C -12.2 °C 1020.9 hPa WNW 8 km/h 8 km/h 55% 0 mm 517 W/m2
12:08 -4.3 °C -12.3 °C 1020.5 hPa WSW 8 km/h 22.5 km/h 54% 0 mm 441 W/m2
12:14 -4.6 °C -12.5 °C 1020.5 hPa West 9.7 km/h 14.5 km/h 54% 0 mm 531 W/m2
12:19 -4.4 °C -12.1 °C 1020.5 hPa WSW 9.7 km/h 11.3 km/h 55% 0 mm 531 W/m2
12:26 -4.1 °C -12.2 °C 1020.2 hPa South 8 km/h 14.5 km/h 53% 0 mm 427 W/m2
12:32 -4.6 °C -12.4 °C 1020.2 hPa WSW 8 km/h 9.7 km/h 54% 0 mm 366 W/m2
12:38 -4.6 °C -12.4 °C 1020.2 hPa WSW 8 km/h 16.1 km/h 54% 0 mm 383 W/m2
12:43 -4.7 °C -12.8 °C 1020.2 hPa West 8 km/h 9.7 km/h 53% 0 mm 473 W/m2
12:49 -4.7 °C -12.6 °C 1020.2 hPa WSW 9.7 km/h 9.7 km/h 54% 0 mm 399 W/m2
12:56 -4.5 °C -12.4 °C 1019.9 hPa WSW 8 km/h 11.3 km/h 54% 0 mm 366 W/m2
13:02 -4.8 °C -12.9 °C 1019.9 hPa WSW 9.7 km/h 11.3 km/h 53% 0 mm 334 W/m2
13:08 -4.8 °C -12.9 °C 1019.9 hPa SW 11.3 km/h 11.3 km/h 53% 0 mm 309 W/m2
13:14 -4.6 °C -12.5 °C 1019.5 hPa West 8 km/h 9.7 km/h 54% 0 mm 276 W/m2
13:19 -4.8 °C -12.9 °C 1019.5 hPa WSW 8 km/h 8 km/h 53% 0 mm 237 W/m2
13:25 -4.7 °C -13.1 °C 1019.5 hPa WSW 6.4 km/h 12.9 km/h 52% 0 mm 236 W/m2
13:32 -4.9 °C -12.8 °C 1019.5 hPa West 8 km/h 8 km/h 54% 0 mm 251 W/m2
13:38 -4.7 °C -12.6 °C 1019.5 hPa WSW 8 km/h 12.9 km/h 54% 0 mm 253 W/m2
13:43 -4.7 °C -12.6 °C 1019.5 hPa West 6.4 km/h 16.1 km/h 54% 0 mm 244 W/m2
13:49 -4.8 °C -12.9 °C 1019.5 hPa NW 8 km/h 9.7 km/h 53% 0 mm 236 W/m2
13:56 -4.8 °C -13.2 °C 1019.5 hPa West 9.7 km/h 11.3 km/h 52% 0 mm 345 W/m2
14:02 -4.3 °C -12.9 °C 1019.5 hPa SW 6.4 km/h 12.9 km/h 51% 0 mm 394 W/m2
14:08 -4.5 °C -12.7 °C 1019.5 hPa WSW 8 km/h 17.7 km/h 53% 0 mm 304 W/m2
14:14 -4.3 °C -12.9 °C 1019.2 hPa SW 8 km/h 12.9 km/h 51% 0 mm 401 W/m2
14:19 -4.4 °C -13.1 °C 1019.5 hPa SW 8 km/h 8 km/h 51% 0 mm 315 W/m2
14:26 -4.3 °C -12.7 °C 1019.5 hPa WSW 8 km/h 11.3 km/h 52% 0 mm 287 W/m2
14:32 -4.4 °C -13.3 °C 1019.5 hPa West 8 km/h 8 km/h 50% 0 mm 227 W/m2
14:38 -4.4 °C -13.3 °C 1019.5 hPa WSW 8 km/h 8 km/h 50% 0 mm 315 W/m2
14:43 -4.3 °C -13.4 °C 1019.5 hPa WSW 8 km/h 12.9 km/h 49% 0 mm 285 W/m2
14:49 -4.3 °C -13.4 °C 1019.5 hPa West 8 km/h 8 km/h 49% 0 mm 225 W/m2
14:56 -4.4 °C -13.6 °C 1019.5 hPa WNW 6.4 km/h 9.7 km/h 49% 0 mm 209 W/m2
15:02 -4.6 °C -13.7 °C 1019.5 hPa SSW 6.4 km/h 9.7 km/h 49% 0 mm 146 W/m2
15:08 -4.8 °C -13.9 °C 1019.5 hPa West 9.7 km/h 11.3 km/h 49% 0 mm 137 W/m2
15:13 -4.8 °C -13.7 °C 1019.5 hPa WNW 8 km/h 11.3 km/h 50% 0 mm 146 W/m2
15:19 -4.7 °C -14 °C 1019.5 hPa WSW 8 km/h 11.3 km/h 48% 0 mm 197 W/m2
15:26 -4.5 °C -13.9 °C 1019.5 hPa West 8 km/h 14.5 km/h 48% 0 mm 278 W/m2
15:32 -4.4 °C -14.1 °C 1019.5 hPa West 8 km/h 19.3 km/h 47% 0 mm 216 W/m2
15:38 -4.5 °C -14.1 °C 1019.5 hPa SW 9.7 km/h 19.3 km/h 47% 0 mm 174 W/m2
15:43 -4.6 °C -13.9 °C 1019.5 hPa West 8 km/h 11.3 km/h 48% 0 mm 130 W/m2
15:50 -4.8 °C -14.4 °C 1019.9 hPa WNW 8 km/h 9.7 km/h 47% 0 mm 109 W/m2
15:55 -4.8 °C -13.9 °C 1019.5 hPa SW 8 km/h 19.3 km/h 49% 0 mm 162 W/m2
16:02 -4.8 °C -14.4 °C 1019.9 hPa West 8 km/h 8 km/h 47% 0 mm 118 W/m2
16:08 -4.9 °C -14.3 °C 1019.9 hPa West 8 km/h 9.7 km/h 48% 0 mm 86 W/m2
16:13 -5 °C -14.1 °C 1019.9 hPa West 6.4 km/h 8 km/h 49% 0 mm 74 W/m2
16:20 -5.1 °C -13.9 °C 1019.9 hPa SW 4.8 km/h 9.7 km/h 50% 0 mm 69 W/m2
16:25 -5.1 °C -13.9 °C 1020.2 hPa WSW 4.8 km/h 9.7 km/h 50% 0 mm 60 W/m2
16:32 -5.2 °C -14.1 °C 1020.2 hPa West 8 km/h 12.9 km/h 50% 0 mm 47 W/m2
16:38 -5.3 °C -13.9 °C 1020.2 hPa West 8 km/h 12.9 km/h 51% 0 mm 42 W/m2
16:44 -5.4 °C -13.9 °C 1020.2 hPa West 8 km/h 9.7 km/h 51% 0 mm 39 W/m2
16:49 -5.5 °C -14.1 °C 1019.9 hPa West 8 km/h 11.3 km/h 51% 0 mm 30 W/m2
16:55 -5.6 °C -13.9 °C 1019.9 hPa SW 8 km/h 11.3 km/h 52% 0 mm 26 W/m2
17:02 -5.7 °C -14 °C 1019.9 hPa West 6.4 km/h 11.3 km/h 52% 0 mm 23 W/m2
17:08 -5.8 °C -14.1 °C 1020.2 hPa WSW 6.4 km/h 17.7 km/h 52% 0 mm 16 W/m2
17:13 -5.9 °C -14.2 °C 1020.2 hPa West 8 km/h 8 km/h 52% 0 mm 11 W/m2
17:20 -6 °C -14.1 °C 1020.2 hPa West 6.4 km/h 6.4 km/h 53% 0 mm 5 W/m2
17:25 -6.1 °C -14.2 °C 1020.2 hPa West 6.4 km/h 11.3 km/h 53% 0 mm 0 W/m2
17:32 -6.2 °C -14.1 °C 1020.2 hPa SW 6.4 km/h 6.4 km/h 54% 0 mm 0 W/m2
17:38 -6.3 °C -14.1 °C 1020.2 hPa WSW 6.4 km/h 12.9 km/h 54% 0 mm 0 W/m2
17:44 -6.4 °C -14.2 °C 1020.2 hPa WSW 6.4 km/h 6.4 km/h 54% 0 mm 0 W/m2
17:50 -6.4 °C -14.2 °C 1020.5 hPa WSW 6.4 km/h 6.4 km/h 54% 0 mm 0 W/m2
17:55 -6.6 °C -14.3 °C 1020.5 hPa West 4.8 km/h 8 km/h 54% 0 mm 0 W/m2
18:02 -6.6 °C -14.3 °C 1020.5 hPa WSW 4.8 km/h 4.8 km/h 54% 0 mm 0 W/m2
18:08 -6.7 °C -14.4 °C 1020.5 hPa SW 4.8 km/h 8 km/h 54% 0 mm 0 W/m2
18:13 -6.8 °C -14.3 °C 1020.5 hPa West 4.8 km/h 4.8 km/h 55% 0 mm 0 W/m2
18:19 -6.9 °C -14.4 °C 1020.5 hPa WSW 3.2 km/h 3.2 km/h 55% 0 mm 0 W/m2
18:26 -6.9 °C -14.3 °C 1020.5 hPa WSW 3.2 km/h 9.7 km/h 56% 0 mm 0 W/m2
18:32 -6.9 °C -14.3 °C 1020.5 hPa WSW 4.8 km/h 4.8 km/h 56% 0 mm 0 W/m2
18:38 -7.1 °C -14.4 °C 1020.9 hPa SW 4.8 km/h 9.7 km/h 56% 0 mm 0 W/m2
18:43 -7.1 °C -14.2 °C 1020.9 hPa WSW 4.8 km/h 4.8 km/h 57% 0 mm 0 W/m2
18:50 -7.1 °C -14.2 °C 1020.9 hPa WSW 6.4 km/h 6.4 km/h 57% 0 mm 0 W/m2
18:56 -7.1 °C -14.2 °C 1021.2 hPa West 6.4 km/h 11.3 km/h 57% 0 mm 0 W/m2
19:02 -7.2 °C -14.1 °C 1021.2 hPa West 6.4 km/h 6.4 km/h 58% 0 mm 0 W/m2
19:08 -7.3 °C -14.2 °C 1021.2 hPa WSW 6.4 km/h 9.7 km/h 58% 0 mm 0 W/m2
19:14 -7.3 °C -14.2 °C 1021.2 hPa West 6.4 km/h 16.1 km/h 58% 0 mm 0 W/m2
19:19 -7.3 °C -14 °C 1021.2 hPa West 6.4 km/h 6.4 km/h 59% 0 mm 0 W/m2
19:25 -7.3 °C -13.9 °C 1021.2 hPa WSW 6.4 km/h 19.3 km/h 59% 0 mm 0 W/m2
19:32 -7.3 °C -14 °C 1021.2 hPa West 8 km/h 8 km/h 59% 0 mm 0 W/m2
19:38 -7.4 °C -13.8 °C 1021.2 hPa West 6.4 km/h 8 km/h 60% 0 mm 0 W/m2
19:43 -7.5 °C -13.9 °C 1021.2 hPa West 6.4 km/h 8 km/h 60% 0 mm 0 W/m2
19:50 -7.5 °C -13.9 °C 1021.2 hPa West 6.4 km/h 6.4 km/h 60% 0 mm 0 W/m2
19:56 -7.5 °C -13.9 °C 1021.2 hPa WSW 8 km/h 11.3 km/h 60% 0 mm 0 W/m2
20:02 -7.5 °C -13.9 °C 1021.2 hPa West 8 km/h 17.7 km/h 60% 0 mm 0 W/m2
20:08 -7.4 °C -13.9 °C 1021.2 hPa WSW 8 km/h 17.7 km/h 60% 0 mm 0 W/m2
20:14 -7.5 °C -13.7 °C 1021.2 hPa West 9.7 km/h 9.7 km/h 61% 0 mm 0 W/m2
20:19 -7.6 °C -13.8 °C 1021.2 hPa West 8 km/h 8 km/h 61% 0 mm 0 W/m2
20:26 -7.6 °C -13.8 °C 1021.6 hPa WSW 8 km/h 11.3 km/h 61% 0 mm 0 W/m2
20:32 -7.6 °C -13.8 °C 1021.2 hPa West 9.7 km/h 14.5 km/h 61% 0 mm 0 W/m2
20:38 -7.6 °C -13.8 °C 1021.2 hPa West 9.7 km/h 17.7 km/h 61% 0 mm 0 W/m2
20:43 -7.7 °C -13.9 °C 1021.6 hPa West 8 km/h 11.3 km/h 61% 0 mm 0 W/m2
20:49 -7.7 °C -13.9 °C 1021.6 hPa WSW 8 km/h 8 km/h 61% 0 mm 0 W/m2
20:56 -7.7 °C -13.9 °C 1021.6 hPa West 9.7 km/h 9.7 km/h 61% 0 mm 0 W/m2
21:02 -7.7 °C -13.9 °C 1021.6 hPa West 8 km/h 11.3 km/h 61% 0 mm 0 W/m2
21:08 -7.7 °C -13.9 °C 1021.6 hPa West 8 km/h 11.3 km/h 61% 0 mm 0 W/m2
21:14 -7.7 °C -13.9 °C 1021.6 hPa SW 8 km/h 11.3 km/h 61% 0 mm 0 W/m2
21:20 -7.7 °C -13.5 °C 1021.9 hPa SW 8 km/h 16.1 km/h 63% 0 mm 0 W/m2
21:25 -7.7 °C -13.5 °C 1021.6 hPa West 8 km/h 16.1 km/h 63% 0 mm 0 W/m2
21:32 -7.6 °C -13.4 °C 1021.9 hPa West 8 km/h 12.9 km/h 63% 0 mm 0 W/m2
21:38 -7.6 °C -13.3 °C 1021.9 hPa West 9.7 km/h 20.9 km/h 64% 0 mm 0 W/m2
21:44 -7.7 °C -13.3 °C 1021.9 hPa WSW 9.7 km/h 14.5 km/h 64% 0 mm 0 W/m2
21:50 -7.6 °C -13.1 °C 1021.9 hPa WNW 9.7 km/h 9.7 km/h 65% 0 mm 0 W/m2
21:55 -7.6 °C -13 °C 1021.9 hPa West 9.7 km/h 16.1 km/h 65% 0 mm 0 W/m2
22:02 -7.6 °C -12.6 °C 1022.2 hPa West 9.7 km/h 9.7 km/h 67% 0 mm 0 W/m2
22:08 -7.7 °C -12.2 °C 1022.2 hPa West 9.7 km/h 9.7 km/h 70% 0 mm 0 W/m2
22:13 -7.8 °C -12.2 °C 1022.2 hPa NW 9.7 km/h 9.7 km/h 71% 0 mm 0 W/m2
22:19 -7.8 °C -12.1 °C 1022.2 hPa WNW 9.7 km/h 11.3 km/h 71% 0 mm 0 W/m2
22:26 -7.7 °C -12.1 °C 1022.2 hPa West 8 km/h 12.9 km/h 71% 0 mm 0 W/m2
22:32 -7.8 °C -11.7 °C 1022.2 hPa West 8 km/h 8 km/h 74% 0 mm 0 W/m2
22:38 -7.8 °C -11.8 °C 1022.2 hPa West 6.4 km/h 8 km/h 73% 0 mm 0 W/m2
22:44 -7.8 °C -12.1 °C 1022.2 hPa WSW 6.4 km/h 14.5 km/h 71% 0 mm 0 W/m2
22:50 -7.7 °C -12.2 °C 1022.2 hPa West 6.4 km/h 11.3 km/h 70% 0 mm 0 W/m2
22:56 -7.7 °C -12.2 °C 1022.2 hPa SSW 6.4 km/h 14.5 km/h 70% 0 mm 0 W/m2
23:02 -7.6 °C -12.1 °C 1022.2 hPa West 8 km/h 11.3 km/h 70% 0 mm 0 W/m2
23:13 -7.6 °C -11.9 °C 1022.2 hPa WSW 9.7 km/h 11.3 km/h 71% 0 mm 0 W/m2
23:20 -7.5 °C -11.7 °C 1022.2 hPa West 8 km/h 8 km/h 72% 0 mm 0 W/m2
23:26 -7.6 °C -11.6 °C 1022.2 hPa West 8 km/h 11.3 km/h 73% 0 mm 0 W/m2
23:32 -7.6 °C -11.8 °C 1022.2 hPa SW 6.4 km/h 6.4 km/h 72% 0 mm 0 W/m2
23:38 -7.5 °C -11.5 °C 1022.6 hPa WNW 8 km/h 8 km/h 73% 0 mm 0 W/m2
23:43 -7.6 °C -11.2 °C 1022.6 hPa WNW 8 km/h 9.7 km/h 75% 0 mm 0 W/m2
23:49 -7.7 °C -11 °C 1022.2 hPa West 8 km/h 22.5 km/h 77% 0 mm 0 W/m2
23:56 -7.7 °C -10.7 °C 1022.2 hPa WNW 9.7 km/h 22.5 km/h 79% 0 mm 0 W/m2
Country Meadow, Clay, NY, USA
Compliments of Weather Underground - 2 mb